Weather History for Wellsville, NY

Change the Weather History Date:

Saturday, October 8, 2011

  Actual Average (KBFD) Record (KBFD)
Temperature  
Mean Temperature 64 °F 49 °F  
Max Temperature 77 °F 60 °F 80 °F (2007)
Min Temperature 50 °F 38 °F 22 °F (2001)
Degree Days  
Heating Degree Days 2 12  
Month to date heating degree days 87  
Since 1 July heating degree days 504  
Cooling Degree Days 0 0  
Month to date cooling degree days 0  
Year to date cooling degree days 192  
Growing Degree Days 14 (Base 50)    
Moisture  
Dew Point 45 °F    
Average Humidity 54    
Maximum Humidity 77    
Minimum Humidity 33    
Precipitation  
Precipitation 0.00 in 0.12 in 0.98 in (1998)
Month to date precipitation 0.96  
Year to date precipitation 34.83  
Sea Level Pressure  
Sea Level Pressure 30.49 in    
Wind  
Wind Speed 4 mph (SW)    
Max Wind Speed 7 mph    
Max Gust Speed -    
Visibility 10 miles    
Events      
T = Trace of Precipitation, MM = Missing Value Source: NWS Daily Summary

Daily Weather History Graph

Daily Weather History Graph

Search for Another Location

Airport:

Trip Planner

Search our weather history database for the weather conditions in past years. The results will help you decide how hot, cold, wet, or windy it might be!

Date:

Astronomy

Oct. 08, 2011 Rise Set
Actual Time 7:16 AM EDT 6:42 PM EDT
Civil Twilight 6:48 AM EDT 7:10 PM EDT
Nautical Twilight 6:15 AM EDT 7:42 PM EDT
Astronomical Twilight 5:43 AM EDT 8:14 PM EDT
Moon 4:53 PM EDT (10/8) 3:58 AM EDT (10/8)
Length of Visible Light 12h 21m
Length of Day
11h 25m
Waxing Gibbous, 90% of the Moon is Illuminated
Oct 8
Waxing Gibbous
Oct 11
Full
Oct 19
Last Quarter
Oct 26
New
Nov 2
First Quarter

Hourly Weather History & Observations

Time (EDT) Temp. Dew Point Humidity Pressure Visibility Wind Dir Wind Speed Gust Speed Precip Events Conditions
12:56 AM 55.9 °F 42.1 °F 60% 30.48 in 10.0 mi SW 4.6 mph - N/A   Clear
1:56 AM 54.0 °F 43.0 °F 66% 30.48 in 10.0 mi SSW 4.6 mph - N/A   Clear
2:56 AM 54.0 °F 43.0 °F 66% 30.47 in 10.0 mi SW 4.6 mph - N/A   Clear
3:56 AM 54.0 °F 43.0 °F 66% 30.47 in 10.0 mi SW 3.5 mph - N/A   Clear
4:56 AM 54.0 °F 43.0 °F 66% 30.48 in 10.0 mi WSW 3.5 mph - N/A   Clear
5:56 AM 50.0 °F 43.0 °F 77% 30.50 in 10.0 mi SSW 5.8 mph - N/A   Clear
6:56 AM 53.1 °F 45.0 °F 74% 30.51 in 10.0 mi SW 4.6 mph - N/A   Clear
7:56 AM 55.9 °F 46.0 °F 69% 30.52 in 10.0 mi SSW 4.6 mph - N/A   Clear
8:56 AM 55.9 °F 48.9 °F 77% 30.53 in 10.0 mi Calm Calm - N/A   Clear
9:56 AM 62.1 °F 50.0 °F 65% 30.54 in 10.0 mi Calm Calm - N/A   Clear
10:56 AM 68.0 °F 48.0 °F 49% 30.53 in 10.0 mi Variable 3.5 mph - N/A   Clear
11:56 AM 71.1 °F 44.1 °F 38% 30.52 in 10.0 mi SW 6.9 mph - N/A   Clear
1:56 PM 75.0 °F 46.9 °F 37% 30.48 in 10.0 mi Variable 3.5 mph - N/A   Unknown
2:56 PM 75.9 °F 46.0 °F 35% 30.46 in 10.0 mi Calm Calm - N/A   Clear
3:56 PM 77.0 °F 46.0 °F 33% 30.45 in 10.0 mi Calm Calm - N/A   Clear
4:56 PM 75.9 °F 46.0 °F 35% 30.45 in 10.0 mi SW 3.5 mph - N/A   Clear
5:56 PM 73.0 °F 46.0 °F 38% 30.45 in 10.0 mi SSW 4.6 mph - N/A   Clear
6:56 PM 69.1 °F 46.0 °F 44% 30.47 in 10.0 mi SSW 6.9 mph - N/A   Clear
7:56 PM 68.0 °F 46.0 °F 45% 30.47 in 10.0 mi SSW 6.9 mph - N/A   Clear
8:56 PM 66.9 °F 45.0 °F 45% 30.48 in 10.0 mi Calm Calm - N/A   Clear
10:56 PM 64.0 °F 48.0 °F 56% 30.48 in 10.0 mi SW 6.9 mph - N/A   Clear